Regional Weather Roundup
Issued by NWS Upton, NY

Current Version | Previous Version | Text Only | Print | Product List | Glossary Off
Versions: 1 2 3 4 5 6 7 8 9 10 11 12 13 14 15 16 17 18 19 20 21 22 23 24 25 26 27 28 29 30 31 32 33 34 35 36 37 38 39 40 41 42 43 44 45 46 47 48 49 50

299
ASUS41 KOKX 250705
RWROKX

Regional Weather Roundup
National Weather Service New York NY
300 AM EDT WED APR 25 2018

Note: "FAIR" indicates few or no clouds below 12,000 feet with no
significant weather and/or obstructions to visibility.

NYZ071-072-176-178-NJZ106-104-250800-
New York City Metro Area

CITY           SKY/WX    TMP DP  RH WIND       PRES   REMARKS
Central Park   LGT RAIN  53  51  93 NE6       30.08F
Bronx Bot Gard   N/A     50  46  87 N5        30.08F
Bronx Lehman C   N/A     50  46  87 E9          N/A
LaGuardia Arpt LGT RAIN  50  47  89 NE10      30.05F
Queens College   N/A     54  52  94 E9          N/A
Kennedy Intl   LGT RAIN  52  52 100 E15       30.06F
Breezy Point     N/A     48 N/A N/A E9          N/A
Brooklyn Coll    N/A     52  50  93 E10         N/A
Staten Island    N/A     52  50  93 E12         N/A
Newark/Liberty LGT RAIN  54  52  93 E9        30.04F
Teterboro      LGT RAIN  53  50  89 E7        30.05F FOG
$$

NYZ177-179-078>081-250800-
Long Island New York

CITY           SKY/WX    TMP DP  RH WIND       PRES   REMARKS
Jones Beach      N/A     50 N/A N/A SE9         N/A
Wantagh          N/A     52  50  93 E12         N/A
Hempstead        N/A     54  52  94 SE12      30.10F
Matinecock Pt    N/A     46 N/A N/A E17         N/A
Farmingdale    CLOUDY    53  51  93 SE12      30.08F
MacArthur/ISP  LGT RAIN  53  51  93 SE15G24   30.08F
Stony Brook      N/A     54  50  87 SE8         N/A
Shirley        LGT RAIN  53  51  93 SE9G20    30.09F
Mt Sinai Harb    N/A    N/A N/A N/A E5          N/A
Westhampton    LGT RAIN  51  47  86 E8G17     30.11F
East Hampton   DRIZZLE   49  47  90 SE9       30.11F
Southold         N/A     54  50  87 SE9         N/A
Montauk          N/A     52  47  83 SE12G22   30.13F
$$

NYZ052-065-067-250800-
Hudson Valley

CITY           SKY/WX    TMP DP  RH WIND       PRES   REMARKS
White Plains   LGT RAIN  50  48  93 E7        30.06F
Larchmont Harb   N/A     46 N/A N/A NE20        N/A
Croton On Huds   N/A     50 N/A N/A W1          N/A
Somers           N/A     50  48  93 E6          N/A
Brewster         N/A     48  46  93 E3          N/A
Newburgh       LGT RAIN  48  48 100 CALM      30.09F
Montgomery     LGT RAIN  48  46  93 N8        30.07F
Otisville        N/A     46  46 100 NE3         N/A
Warwick          N/A     48  48 100 E3          N/A
Suffern          N/A     48  46  93 NE2         N/A
Poughkeepsie   LGT RAIN  49  46  90 N5        30.08F
Albany         LGT RAIN  50  45  83 CALM      30.14F
$$

NJZ001-105-106-008-010-013-015-019>022-104-250800-
New Jersey

CITY           SKY/WX    TMP DP  RH WIND       PRES   REMARKS
Newark/Liberty LGT RAIN  54  52  93 E9        30.04F
Teterboro      LGT RAIN  53  50  89 E7        30.05F FOG
Caldwell       LGT RAIN  49  49 100 E10       30.05F FOG
Somerville     LGT RAIN  53  53 100 E6        30.00F FOG
Linden         LGT RAIN  52  50  92 SE9       30.04F
Perth Amboy      N/A     50 N/A N/A E13         N/A
Sussex         CLOUDY    48  46  93 NE6       30.05F
Andover          N/A     50  49  96 N3        30.02F
Trenton        LGT RAIN  54  53  97 E9        29.98F FOG
Millville      LGT RAIN  56  55  97 SE15      29.92F FOG
Atlantic City  CLOUDY    55  55 100 E17G28    29.96F FOG
Wrightstown    CLOUDY    54  54  98 E12       29.95F
Toms River     LGT RAIN  54  53  97 E7        30.00F FOG
Belmar         LGT RAIN  52  51  97 E14       30.02F FOG
$$

PAZ047>061-062-071-250800-
Eastern Pennsylvania

CITY           SKY/WX    TMP DP  RH WIND       PRES   REMARKS
Philadelphia   LGT RAIN  54  53  97 E13       29.95F FOG
Allentown      LGT RAIN  54  50  86 E10       29.98F FOG
Scranton       RAIN      49  48  97 NE9       29.99F FOG
$$

CTZ002-004>006-009-010-012-RIZ004-006-007-MAZ004-011-015-250800-
Southern New England

 In CT

CITY           SKY/WX    TMP DP  RH WIND       PRES   REMARKS
Bradley Intl   CLOUDY    52  39  61 E5        30.13F
Hartford       CLOUDY    53  43  68 CALM      30.13F
Danbury        LGT RAIN  51  49  92 E7        30.10F
Wtrbury/Oxford LGT RAIN  51  48  89 E10       30.10F
Norwalk Harbor   N/A     46 N/A N/A NE18        N/A
Bridgeport     LGT RAIN  49  45  86 E14       30.10F
Meriden        CLOUDY    52  45  77 NE5       30.12F
New Haven      CLOUDY    52  46  80 E12       30.10F
Chester        FAIR      52  46  82 E8        30.12F
Groton         CLOUDY    51  47  86 E12       30.13F
Willimantic    MOCLDY    52  42  69 VRB3      30.15F

 In RI

CITY           SKY/WX    TMP DP  RH WIND       PRES   REMARKS
Providence     FAIR      50  43  77 CALM      30.18F
Block Island   FAIR      50  46  86 SE15G22   30.14F
Westerly       MOCLDY    51  47  86 E10       30.15F

In MA

CITY           SKY/WX    TMP DP  RH WIND       PRES   REMARKS
Boston         FAIR      50  38  63 E6        30.19F
Worcester      FAIR      48  35  60 SE6       30.16F
Westfield      LGT RAIN  52  38  58 CALM      30.14F
Provincetown   FAIR      50  45  83 S7        30.21F
Nantucket      MOCLDY    48  47  96 SE16      30.20F
$$

ANZ330-335-338-340-345-350-353-355-250800-
Coastal Marine Observations


STATION/POSITION TIME  SKY/WX   TEMP    WIND        PRES    VSBY  WAVE
                                AIR SEA DIR/SP/G                  HT/PER
                 (UTC)          (F)     (DEG/KT/KT) (MB)    (MI)  (FT/S)
NY Harb Entrance 0650            49 47  110/ 14/ 16 1017.4          4/ 7
20 S Fire Island 0650            49 44  110/ 14/ 16 1017.5          5/ 8
23 SSW Montauk P 0650            48 45  130/ 14/ 17 1019.5          4/ 6
15 E Barnegat Li 0630               46                N/A           6/ 8
Hudson Canyon    0650            50 45  100/ 10/ 12 1017.1          6/ 8
Kings Point      0630            54 47  160/  5/  9 1019.3
Execution Rocks  NOT AVBL
Western LI Sound NOT AVBL
Central LI Sound 0645            47      80/ 12/ 14   N/A           1
Robbins Reef     0642            53     120/ 16/ 18 1018.2
$$


>>>>>>>>>>>>>>>>>>>>>>>>>>>> KEY <<<<<<<<<<<<<<<<<<<<<<<<<<<
>                                                          <
>     SKY/WX - Sky Condition/Present Weather               <
>     TMP    - Temperature in Fahrenheit                   <
>     DP     - Dew Point in Fahrenheit                     <
>     RH     - Relative Humidity in Percent                <
>     WIND   - Direction (from) and Speed in MPH           <
>     PRES   - Mean Sea Level Pressure (inches of Hg)      <
>     WCI    - Wind Chill Index                            <
>     VSB    - Visibility in Miles                         <
>     HX     - Heat Index                                  <
>     TC     - Temperature in Celsius                      <
>     VRB    - Varibale Wind Direction                     <
>                                                          <
>>>>>>>>>>>>>>>>>>>>>>>>>>>> KEY <<<<<<<<<<<<<<<<<<<<<<<<<<<




USA.gov is the U.S. government's official web portal to all federal, state and local government web resources and services.